EW2974 Weather Reports


time (UTC)temp
C
wind
direction
speed
KPH
gust
KPH
rain 1hr
cm
rain 24hr
cm
rain mn
cm
humidity
%
barometer
mb
20260510065903 12 263 0.0 0.0 0.00 1.63 0.25 94 1007.4
20260510065404 12 263 0.0 0.0 0.00 1.63 0.25 94 1007.4
20260510064904 12 263 0.0 0.0 0.00 1.63 0.25 94 1007.2
20260510064404 12 263 0.0 0.0 0.00 1.65 0.25 94 1007.2
20260510063904 12 263 0.0 0.0 0.00 1.65 0.25 94 1007.2
20260510063404 12 263 0.0 0.0 0.00 1.65 0.25 94 1007.3
20260510062404 12 263 0.0 0.0 0.00 1.68 0.25 94 1007.4
20260510061404 12 263 0.0 0.0 0.00 1.68 0.25 94 1007.4
20260510060904 12 264 0.0 0.0 0.00 1.70 0.25 94 1007.7
20260510060404 12 264 0.0 0.0 0.00 1.70 0.25 94 1007.8
20260510055903 12 264 0.0 12.9 0.00 1.73 0.25 94 1007.6
20260510055404 12 31 1.6 12.9 0.00 1.75 0.25 94 1007.3
20260510054904 12 274 0.0 0.0 0.00 1.75 0.25 94 1006.9
20260510054404 12 274 0.0 0.0 0.00 1.75 0.25 94 1006.3
20260510053904 12 234 0.0 0.0 0.03 1.78 0.25 94 1006.3
20260510053404 12 234 0.0 0.0 0.03 1.80 0.25 94 1006.3
20260510052905 12 234 0.0 0.0 0.08 1.83 0.25 94 1006.3
20260510052405 12 234 0.0 0.0 0.10 1.85 0.25 94 1006.2
20260510051905 12 234 0.0 0.0 0.15 1.85 0.25 94 1006.1
20260510050905 12 202 0.0 0.0 0.23 1.88 0.25 93 1006.1
20260510050405 12 202 0.0 0.0 0.25 1.91 0.25 93 1006.2
20260510045905 12 202 0.0 0.0 0.25 1.91 0.25 93 1006.2
20260510045405 12 202 0.0 0.0 0.25 1.91 0.25 93 1006.3
20260510044405 12 202 0.0 0.0 0.25 1.91 0.25 93 1006.2
20260510043905 12 202 0.0 0.0 0.23 1.91 0.23 93 1006.3
20260510041905 12 218 3.2 19.3 0.10 1.80 0.10 93 1007.0
20260510041405 12 190 3.2 9.7 0.08 1.78 0.08 93 1006.8
20260510040905 12 259 0.0 0.0 0.05 1.73 0.03 93 1007.0
20260510040405 12 261 0.0 0.0 0.08 1.70 0.00 93 1007.2
20260510035905 12 261 0.0 0.0 0.10 1.73 1.73 93 1006.9
20260510035405 12 261 0.0 0.0 0.10 1.73 1.73 93 1006.7
20260510034905 12 261 0.0 0.0 0.10 1.73 1.73 93 1006.5
20260510034405 12 259 0.0 0.0 0.10 1.75 1.73 93 1006.6
20260510033905 12 259 0.0 0.0 0.10 1.78 1.73 93 1006.7
20260510033405 12 259 0.0 0.0 0.10 1.80 1.73 93 1006.5
20260510032905 12 259 0.0 0.0 0.10 1.80 1.73 93 1006.3
20260510032405 12 259 0.0 0.0 0.10 1.83 1.73 92 1006.2
20260510031405 12 269 1.6 4.8 0.10 1.83 1.73 93 1006.4
20260510030905 12 272 0.0 0.0 0.10 1.85 1.73 93 1006.7
20260510030405 12 263 11.3 19.3 0.03 1.78 1.65 94 1007.4
20260510025905 12 259 1.6 8.0 0.00 1.75 1.63 94 1007.2
20260510025408 12 254 0.0 0.0 0.00 1.78 1.63 94 1006.3
20260510024905 12 254 0.0 0.0 0.00 1.78 1.63 94 1006.1
20260510023406 12 254 0.0 0.0 0.00 1.80 1.63 93 1006.1
20260510022905 12 254 0.0 0.0 0.00 1.83 1.63 93 1006.1
20260510022405 12 254 0.0 0.0 0.00 1.83 1.63 93 1005.9
20260510021905 12 254 0.0 0.0 0.00 1.83 1.63 93 1005.9
20260510021405 12 254 0.0 0.0 0.00 1.83 1.63 93 1005.9
20260510020905 12 254 0.0 0.0 0.00 1.83 1.63 93 1005.9
20260510020405 12 254 0.0 0.0 0.00 1.83 1.63 93 1006.1
20260510015905 12 254 0.0 0.0 0.00 1.85 1.63 93 1006.2
20260510015405 12 254 0.0 0.0 0.00 1.85 1.63 93 1006.1
20260510014905 12 254 0.0 0.0 0.00 1.85 1.63 93 1006.1
20260510014405 12 254 0.0 0.0 0.00 1.88 1.63 93 1006.1
20260510013905 12 254 0.0 0.0 0.00 1.91 1.63 92 1006.0
20260510013404 12 254 0.0 0.0 0.00 1.91 1.63 92 1006.0
20260510012905 12 254 0.0 0.0 0.05 1.93 1.63 92 1006.0
20260510012405 12 254 0.0 0.0 0.10 1.93 1.63 92 1006.1
20260510010905 12 255 0.0 0.0 0.20 1.98 1.63 91 1005.8
20260510010406 12 255 0.0 0.0 0.23 1.98 1.63 91 1005.7
20260510005905 12 255 0.0 0.0 0.28 2.01 1.63 91 1005.6
20260510004405 12 255 0.0 0.0 0.86 2.03 1.63 91 1005.6
20260510003905 12 255 0.0 0.0 0.86 2.03 1.63 90 1005.5
20260510003405 12 231 0.0 9.7 0.89 2.06 1.63 91 1005.5
20260510002905 12 211 4.8 22.5 0.84 2.03 1.57 91 1006.0
20260510002405 12 276 0.0 1.6 0.79 1.98 1.52 91 1006.1
20260510001905 12 275 0.0 0.0 0.74 1.93 1.47 91 1006.1
20260510001405 12 276 0.0 0.0 0.69 1.88 1.42 90 1006.1
20260510000905 12 276 0.0 0.0 0.69 1.91 1.42 90 1005.9
20260510000404 12 276 0.0 0.0 0.66 1.88 1.40 88 1006.0
20260509235405 13 263 11.3 19.3 0.36 1.57 1.09 84 1006.3
20260509234905 14 274 3.2 20.9 0.08 1.30 0.81 80 1005.6
20260509234405 16 259 9.7 19.3 0.03 1.24 0.76 72 1005.3
20260509233904 17 42 0.0 19.3 0.03 1.24 0.76 65 1004.6
20260509233405 18 277 1.6 9.7 0.00 1.22 0.74 60 1004.1
20260509232905 18 284 0.0 8.0 0.00 1.22 0.74 60 1002.8
20260509232405 19 209 0.0 8.0 0.00 1.22 0.74 57 1002.7
20260509231905 19 200 1.6 12.9 0.00 1.22 0.74 58 1002.9
20260509230905 19 249 0.0 9.7 0.00 1.24 0.74 56 1003.0
20260509230405 19 220 0.0 8.0 0.00 1.24 0.74 56 1003.0
20260509225905 20 200 0.0 0.0 0.00 1.24 0.74 56 1002.9
20260509225405 20 241 0.0 12.9 0.00 1.24 0.74 55 1002.6
20260509224905 20 272 3.2 25.7 0.00 1.27 0.74 56 1002.6
20260509224405 20 265 3.2 14.5 0.00 1.27 0.74 55 1002.6
20260509223904 20 266 1.6 20.9 0.00 1.27 0.74 54 1002.6
20260509223405 21 193 4.8 27.4 0.00 1.27 0.74 54 1002.5
20260509222905 21 204 3.2 19.3 0.00 1.27 0.74 52 1002.5
20260509222404 21 262 3.2 14.5 0.00 1.27 0.74 52 1002.5
20260509221905 21 256 11.3 27.4 0.00 1.27 0.74 51 1002.6
20260509221405 21 244 3.2 29.0 0.00 1.30 0.74 54 1002.6
20260509220905 21 230 1.6 29.0 0.00 1.30 0.74 54 1002.4
20260509215905 21 220 3.2 12.9 0.00 1.30 0.74 55 1002.2
20260509215406 21 175 1.6 12.9 0.00 1.30 0.74 56 1002.3
20260509214405 21 238 11.3 40.2 0.00 1.32 0.74 52 1002.4
20260509213905 21 239 9.7 25.7 0.00 1.32 0.74 53 1002.5
20260509212405 21 223 1.6 14.5 0.00 1.35 0.74 54 1002.7
20260509211904 21 243 8.0 25.7 0.00 1.35 0.74 55 1002.8
20260509211405 21 175 12.9 37.0 0.00 1.37 0.74 55 1002.7
20260509205905 21 230 1.6 29.0 0.00 1.40 0.74 54 1002.9
20260509204905 21 269 9.7 25.7 0.00 1.40 0.74 53 1003.0
20260509204405 21 259 8.0 29.0 0.00 1.40 0.74 55 1003.0
20260509203905 21 260 0.0 19.3 0.00 1.40 0.74 58 1003.0
20260509202405 20 183 9.7 29.0 0.00 1.40 0.74 55 1003.4
20260509201905 21 238 6.4 27.4 0.00 1.40 0.74 56 1003.3
20260509201405 20 231 9.7 33.8 0.00 1.40 0.74 55 1003.4
20260509200905 20 237 3.2 22.5 0.00 1.40 0.74 56 1003.6
20260509200405 20 258 3.2 9.7 0.00 1.40 0.74 60 1003.5
20260509195405 20 180 8.0 33.8 0.00 1.40 0.74 60 1003.8
20260509194904 20 277 4.8 12.9 0.00 1.40 0.74 57 1004.0
20260509194405 20 262 8.0 35.4 0.00 1.40 0.74 57 1004.1
20260509193905 20 218 9.7 25.7 0.00 1.40 0.74 58 1004.2
20260509193405 20 205 8.0 22.5 0.00 1.40 0.74 58 1004.2
20260509192405 20 254 9.7 25.7 0.00 1.40 0.74 57 1004.4
20260509191905 19 255 6.4 35.4 0.00 1.40 0.74 60 1004.4
20260509191404 19 227 6.4 20.9 0.00 1.40 0.74 57 1004.5
20260509190905 20 261 11.3 27.4 0.00 1.40 0.74 57 1004.5
20260509190405 20 242 8.0 25.7 0.00 1.40 0.74 56 1004.5
20260509185905 20 255 9.7 29.0 0.00 1.40 0.74 57 1004.7
20260509185405 20 233 16.1 33.8 0.00 1.40 0.74 59 1004.7
20260509184905 19 191 3.2 25.7 0.00 1.40 0.74 62 1004.6
20260509184405 19 232 1.6 20.9 0.00 1.40 0.74 62 1004.7
20260509183905 20 254 3.2 14.5 0.00 1.40 0.74 57 1004.7
20260509183405 20 220 6.4 19.3 0.00 1.40 0.74 60 1004.6
20260509182905 20 232 3.2 14.5 0.00 1.40 0.74 60 1004.7
20260509182405 19 252 8.0 29.0 0.00 1.40 0.74 63 1004.8
20260509181904 18 158 1.6 14.5 0.00 1.40 0.74 64 1004.9
20260509180905 18 282 4.8 19.3 0.00 1.40 0.74 65 1004.9
20260509180405 19 180 4.8 19.3 0.00 1.40 0.74 63 1004.9
20260509175905 19 211 9.7 29.0 0.00 1.40 0.74 64 1004.9
20260509175405 18 260 8.0 35.4 0.00 1.42 0.74 67 1004.8
20260509174905 18 262 12.9 29.0 0.00 1.42 0.74 63 1004.8
20260509173904 18 238 4.8 25.7 0.00 1.45 0.74 64 1004.9
20260509173405 19 216 4.8 25.7 0.00 1.45 0.74 65 1004.8
20260509172405 18 279 4.8 14.5 0.00 1.45 0.74 68 1005.0
20260509171905 17 254 4.8 19.3 0.00 1.45 0.74 69 1004.9
20260509171404 17 263 8.0 19.3 0.00 1.45 0.74 66 1005.0
20260509170904 17 272 4.8 29.0 0.00 1.45 0.74 68 1005.1
20260509170405 17 260 9.7 25.7 0.00 1.45 0.74 69 1005.2
20260509165905 17 225 0.0 9.7 0.00 1.45 0.74 74 1005.2
20260509165405 16 192 0.0 14.5 0.00 1.45 0.74 76 1005.3
20260509164905 16 223 0.0 12.9 0.00 1.45 0.74 77 1005.4
20260509164405 16 181 3.2 14.5 0.00 1.45 0.74 76 1005.4
20260509163904 16 243 6.4 12.9 0.00 1.45 0.74 75 1005.5
20260509163404 16 226 3.2 19.3 0.00 1.45 0.74 79 1005.7
20260509162405 16 242 3.2 14.5 0.00 1.45 0.74 80 1005.7
20260509161905 16 223 0.0 27.4 0.00 1.45 0.74 81 1005.7
20260509161404 15 204 0.0 9.7 0.00 1.45 0.74 85 1005.8
20260509160904 15 262 0.0 12.9 0.00 1.45 0.74 85 1005.9
20260509160405 14 242 3.2 14.5 0.00 1.45 0.74 84 1005.8
20260509155905 14 270 0.0 4.8 0.00 1.45 0.74 85 1005.7
20260509155405 14 259 1.6 9.7 0.00 1.45 0.74 86 1005.7
20260509154905 14 225 0.0 8.0 0.00 1.45 0.74 86 1005.8
20260509154405 14 225 1.6 14.5 0.00 1.45 0.74 87 1005.7
20260509153904 14 168 1.6 9.7 0.00 1.45 0.74 87 1005.7
20260509152905 13 250 1.6 12.9 0.00 1.45 0.74 88 1005.7
20260509152404 13 274 0.0 12.9 0.00 1.45 0.74 89 1005.8
20260509151905 13 266 4.8 19.3 0.00 1.45 0.74 90 1005.7
20260509151405 13 231 0.0 1.6 0.00 1.45 0.74 92 1005.8
20260509145904 12 263 0.0 14.5 0.00 1.45 0.74 91 1005.9
20260509145404 12 265 3.2 9.7 0.00 1.45 0.74 91 1006.0
20260509144405 12 250 0.0 0.0 0.00 1.45 0.74 92 1005.9
20260509143905 12 268 1.6 4.8 0.00 1.45 0.74 93 1005.9
20260509143405 12 219 0.0 9.7 0.00 1.45 0.74 94 1005.9
20260509142905 12 186 0.0 1.6 0.00 1.45 0.74 94 1005.8
20260509142405 12 186 1.6 8.0 0.00 1.45 0.74 94 1005.8
20260509141905 12 186 0.0 1.6 0.00 1.45 0.74 95 1005.7
20260509141405 12 151 1.6 9.7 0.00 1.45 0.74 95 1005.7
20260509140905 12 269 4.8 14.5 0.00 1.45 0.74 95 1005.8
20260509140405 12 248 0.0 0.0 0.00 1.45 0.74 95 1005.8
20260509135905 12 248 0.0 4.8 0.00 1.45 0.74 95 1005.9
20260509134905 11 243 0.0 0.0 0.00 1.45 0.74 95 1005.8
20260509134405 11 243 0.0 0.0 0.00 1.45 0.74 95 1005.9
20260509133905 11 258 1.6 4.8 0.00 1.45 0.74 95 1005.9
20260509132905 11 200 0.0 0.0 0.00 1.52 0.74 95 1006.0
20260509132405 11 200 0.0 0.0 0.00 1.52 0.74 95 1006.1
20260509131405 11 199 0.0 8.0 0.00 1.52 0.74 95 1006.2
20260509130904 11 199 0.0 0.0 0.00 1.52 0.74 95 1006.2
20260509130405 11 199 0.0 0.0 0.00 1.52 0.74 95 1006.2
20260509125905 11 199 0.0 0.0 0.03 1.52 0.74 95 1006.3
20260509125405 11 199 0.0 0.0 0.03 1.52 0.74 95 1006.3
20260509124904 11 199 0.0 0.0 0.03 1.52 0.74 95 1006.2
20260509124404 11 199 0.0 0.0 0.03 1.52 0.74 95 1006.2
20260509123905 11 199 0.0 0.0 0.03 1.52 0.74 95 1006.4
20260509123404 11 199 0.0 0.0 0.03 1.52 0.74 95 1006.4
20260509122905 11 199 0.0 0.0 0.03 1.52 0.74 95 1006.3
20260509122405 11 199 0.0 0.0 0.03 1.52 0.74 95 1006.4
20260509121904 11 199 0.0 0.0 0.03 1.52 0.74 95 1006.4
20260509120905 10 199 0.0 0.0 0.03 1.52 0.74 95 1006.5
20260509120405 10 199 0.0 0.0 0.03 1.52 0.74 95 1006.5
20260509114905 10 198 0.0 0.0 0.00 1.50 0.71 95 1006.5
20260509114404 10 198 0.0 0.0 0.00 1.50 0.71 95 1006.5
20260509113905 10 198 0.0 0.0 0.00 1.50 0.71 95 1006.5
20260509113404 10 198 0.0 0.0 0.00 1.50 0.71 95 1006.4
20260509112905 10 198 0.0 0.0 0.00 1.50 0.71 95 1006.4
20260509112404 10 198 0.0 0.0 0.00 1.50 0.71 95 1006.4
20260509111905 10 198 0.0 0.0 0.00 1.50 0.71 95 1006.3
20260509111405 10 198 0.0 0.0 0.00 1.55 0.71 95 1006.2
20260509110904 10 198 0.0 0.0 0.00 1.55 0.71 95 1006.2
20260509110405 10 198 0.0 0.0 0.00 1.55 0.71 95 1006.2
20260509105404 10 199 0.0 0.0 0.03 1.55 0.71 95 1006.1
20260509104405 10 199 0.0 0.0 0.03 1.55 0.71 95 1006.1
20260509103905 10 199 0.0 0.0 0.03 1.55 0.71 95 1006.1
20260509103405 10 199 0.0 0.0 0.03 1.55 0.71 95 1006.2
20260509102904 10 199 0.0 0.0 0.05 1.55 0.71 95 1006.2
20260509102405 10 199 0.0 0.0 0.05 1.55 0.71 95 1006.3
20260509101904 10 199 0.0 0.0 0.05 1.55 0.71 95 1006.3
20260509101405 10 199 0.0 0.0 0.05 1.55 0.71 95 1006.3
20260509100404 10 199 0.0 0.0 0.05 1.55 0.71 95 1006.4
20260509095905 10 199 0.0 0.0 0.05 1.55 0.71 95 1006.3
20260509095405 10 199 0.0 0.0 0.03 1.52 0.69 95 1006.3
20260509094904 10 199 0.0 0.0 0.03 1.52 0.69 95 1006.4
20260509094404 10 199 0.0 0.0 0.03 1.52 0.69 95 1006.5
20260509093905 10 187 0.0 0.0 0.05 1.52 0.69 95 1006.4
20260509093405 10 187 0.0 0.0 0.08 1.52 0.69 95 1006.5
20260509092905 10 187 0.0 0.0 0.05 1.50 0.66 94 1006.6
20260509092404 10 187 0.0 0.0 0.08 1.50 0.66 94 1006.7
20260509091405 10 187 0.0 0.0 0.13 1.50 0.66 94 1006.7
20260509090904 10 187 0.0 0.0 0.15 1.50 0.66 95 1006.8
20260509090404 10 187 0.0 0.0 0.15 1.50 0.66 94 1006.7
20260509085905 10 187 0.0 0.0 0.15 1.50 0.66 94 1006.7
20260509085406 10 186 1.6 8.0 0.15 1.50 0.66 95 1006.8
20260509084905 10 204 0.0 0.0 0.18 1.50 0.66 95 1006.9
20260509084405 10 204 0.0 0.0 0.20 1.50 0.66 95 1006.8
20260509083904 10 204 0.0 0.0 0.20 1.47 0.64 95 1006.8
20260509083405 10 204 1.6 8.0 0.18 1.45 0.61 94 1006.9
20260509082904 10 181 0.0 0.0 0.18 1.45 0.61 94 1006.9
20260509082405 10 181 0.0 0.0 0.15 1.42 0.58 95 1006.9
20260509081905 10 180 0.0 0.0 0.15 1.40 0.56 95 1006.9
20260509081404 10 180 0.0 0.0 0.15 1.37 0.53 95 1006.9
20260509080404 10 180 0.0 0.0 0.15 1.35 0.51 95 1006.8
20260509075905 10 180 0.0 0.0 0.15 1.35 0.51 95 1006.9
20260509075405 10 181 0.0 0.0 0.15 1.35 0.51 94 1006.9
20260509074904 10 180 0.0 8.0 0.13 1.32 0.48 94 1006.9
20260509074405 10 257 0.0 4.8 0.13 1.30 0.46 94 1007.0
20260509073905 10 287 0.0 8.0 0.10 1.27 0.43 94 1007.1
20260509073405 10 178 0.0 4.8 0.10 1.27 0.43 94 1006.9
20260509072905 10 178 0.0 0.0 0.10 1.27 0.43 94 1007.0
20260509072404 10 178 0.0 0.0 0.13 1.27 0.43 94 1007.0
20260509071905 10 178 0.0 0.0 0.10 1.24 0.41 94 1007.1
20260509071405 10 178 0.0 0.0 0.08 1.22 0.38 94 1007.1
20260509070904 9 178 0.0 0.0 0.10 1.22 0.38 94 1007.1
20260509070404 10 178 0.0 0.0 0.08 1.19 0.36 94 1007.0